Status Flugplatz

Der Flugplatz ist offen
PPR Regelung ! PJE !!!

123.15 MHz
RWY 05/23

flüger beizli - Öffnungszeiten
Freitag ab 16:00
Samstag +Sonntag ab 11:00
Bei schönem Wetter öffnen wir früher! Tel.: 079 234 07 74

Herzlich willkommen auf der Homepage des Flugplatz Biel-Kappelen

Wir freuen uns über Ihren Besuch auf unserem schönen Flugplatz im Berner Seeland. Ob zu Fuss, per Velo, Motorrad, Auto oder Flugzeug Sie sind uns jederzeit herzlich willkommen. 


 

Wetter Kappelen

 


 

[source: ADDS]
METAR
LSZG 251150Z 20007KT 160V240 9999 SCT050 25/13 Q1017 NOSIG =
TAF
TAF LSZG 251125Z 2512/2521 20007KT 9999 FEW035 BKN060 PROB30 TEMPO 2514/2518 30010KT BECMG 2515/2518 CAVOK =
SR / SS: 03:37 / 19:32 UTC ( 2017-06-25)

 


 

Besucherzähler

HeuteHeute39
Seit BeginnSeit Beginn90642
Guests 3

Flugplatz Biel-Kappelen LSZP - 123.15MHz - 032 384 46 84

Email: Diese E-Mail-Adresse ist vor Spambots geschützt! Zur Anzeige muss JavaScript eingeschaltet sein!
www.lszp.ch
2017 © by mb

Zum Anfang